When you browse on this site, cookies collect data to enhance your experience and personalize the content and advertising you see.
Visit our Privacy Policy to learn more. By continuing to use the site, you agree to this use of cookies and data.
  • In Spain
  • List of Countries
  • For 7 days
  • Water Temperature
  • Weather Map
  • Weather Widgets
  • user-avatar
    Login

    Hourly Weather Gaborone

    Today, 17 February, Monday

    Time Temperature Precipitation Wind Pressure Humidity
    00:00 +26°C° 0 mm 1 mps 677 mmHg 49%
    01:00 +25°C° 0 mm 1 mps 677 mmHg 54%
    02:00 +24°C° 0 mm 1 mps 677 mmHg 59%
    03:00 +24°C° 0 mm 2 mps 677 mmHg 65%
    04:00 +24°C° 0 mm 2 mps 677 mmHg 70%
    05:00 +23°C° 0 mm 2 mps 677 mmHg 75%
    06:00 +24°C° 0 mm 3 mps 677 mmHg 74%
    07:00 +25°C° 0 mm 4 mps 677 mmHg 72%
    08:00 +26°C° 0 mm 4 mps 678 mmHg 71%
    09:00 +28°C° 0 mm 4 mps 678 mmHg 61%
    10:00 +30°C° 0 mm 3 mps 678 mmHg 51%
    11:00 +33°C° 0 mm 3 mps 679 mmHg 41%
    12:00 +35°C° 0 mm 3 mps 678 mmHg 36%
    13:00 +36°C° 0 mm 3 mps 678 mmHg 31%
    14:00 +37°C° 0 mm 3 mps 677 mmHg 27%
    15:00 +37°C° 0 mm 2 mps 677 mmHg 27%
    16:00 +36°C° 0 mm 2 mps 676 mmHg 28%
    17:00 +36°C° 0 mm 2 mps 676 mmHg 29%
    18:00 +34°C° 0 mm 2 mps 676 mmHg 33%
    19:00 +31°C° 0 mm 2 mps 676 mmHg 37%
    20:00 +30°C° 0 mm 2 mps 676 mmHg 41%
    21:00 +29°C° 0 mm 1 mps 675 mmHg 42%
    22:00 +28°C° 0 mm 1 mps 675 mmHg 44%
    23:00 +28°C° 0 mm 1 mps 675 mmHg 45%

    Tomorrow, 18 February, Tuesday

    Time Temperature Precipitation Wind Pressure Humidity
    00:00 +27°C° 0 mm 1 mps 675 mmHg 46%
    01:00 +27°C° 0 mm 1 mps 675 mmHg 47%
    02:00 +27°C° 0 mm 1 mps 675 mmHg 48%
    03:00 +26°C° 0 mm 2 mps 675 mmHg 50%
    04:00 +25°C° 0 mm 3 mps 675 mmHg 51%
    05:00 +25°C° 0 mm 3 mps 676 mmHg 53%
    06:00 +25°C° 0 mm 4 mps 676 mmHg 55%
    07:00 +26°C° 0 mm 5 mps 677 mmHg 57%
    08:00 +27°C° 0 mm 6 mps 678 mmHg 59%
    09:00 +29°C° 0 mm 6 mps 678 mmHg 54%
    10:00 +32°C° 0 mm 6 mps 678 mmHg 48%
    11:00 +34°C° 0 mm 5 mps 679 mmHg 43%
    12:00 +34°C° 0 mm 5 mps 678 mmHg 40%
    13:00 +35°C° 0 mm 5 mps 678 mmHg 36%
    14:00 +36°C° 0 mm 5 mps 677 mmHg 33%
    15:00 +36°C° 0 mm 4 mps 677 mmHg 32%
    16:00 +35°C° 0 mm 4 mps 676 mmHg 31%
    17:00 +35°C° 0 mm 3 mps 676 mmHg 31%
    18:00 +34°C° 0 mm 3 mps 676 mmHg 33%
    19:00 +31°C° 0 mm 2 mps 676 mmHg 35%
    20:00 +30°C° 0 mm 2 mps 676 mmHg 37%
    21:00 +29°C° 0 mm 2 mps 677 mmHg 39%
    22:00 +29°C° 0 mm 3 mps 677 mmHg 40%
    23:00 +28°C° 0 mm 4 mps 678 mmHg 41%

    Day after tomorrow, 19 February, Wednesday

    Time Temperature Precipitation Wind Pressure Humidity
    00:00 +27°C° 0 mm 4 mps 677 mmHg 45%
    01:00 +26°C° 0 mm 3 mps 677 mmHg 50%
    02:00 +25°C° 0 mm 3 mps 677 mmHg 54%
    03:00 +24°C° 0 mm 3 mps 677 mmHg 59%
    04:00 +24°C° 0 mm 3 mps 677 mmHg 64%
    05:00 +22°C° 0 mm 3 mps 677 mmHg 69%
    06:00 +23°C° 0 mm 4 mps 677 mmHg 68%
    07:00 +23°C° 0 mm 4 mps 678 mmHg 66%
    08:00 +25°C° 0 mm 5 mps 678 mmHg 65%
    09:00 +27°C° 0 mm 5 mps 678 mmHg 57%
    10:00 +30°C° 0 mm 5 mps 679 mmHg 49%
    11:00 +33°C° 0 mm 5 mps 679 mmHg 41%
    12:00 +34°C° 0 mm 5 mps 678 mmHg 36%
    13:00 +36°C° 0 mm 5 mps 678 mmHg 32%
    14:00 +37°C° 0 mm 5 mps 677 mmHg 27%
    15:00 +37°C° 0 mm 4 mps 677 mmHg 27%
    16:00 +36°C° 0 mm 4 mps 676 mmHg 26%
    17:00 +36°C° 0 mm 4 mps 676 mmHg 26%
    18:00 +34°C° 0 mm 3 mps 676 mmHg 29%
    19:00 +31°C° 0 mm 3 mps 676 mmHg 33%
    20:00 +29°C° 0 mm 2 mps 676 mmHg 36%
    21:00 +28°C° 0 mm 2 mps 676 mmHg 40%
    22:00 +28°C° 0 mm 3 mps 676 mmHg 43%
    23:00 +27°C° 0 mm 3 mps 676 mmHg 47%

    20 February, Thursday

    Time Temperature Precipitation Wind Pressure Humidity
    00:00 +26°C° 0 mm 3 mps 676 mmHg 50%
    01:00 +25°C° 0 mm 2 mps 676 mmHg 52%
    02:00 +25°C° 0 mm 2 mps 676 mmHg 55%
    03:00 +24°C° 0 mm 2 mps 676 mmHg 57%
    04:00 +24°C° 0 mm 2 mps 676 mmHg 59%
    05:00 +23°C° 0 mm 2 mps 676 mmHg 61%
    06:00 +24°C° 0 mm 3 mps 676 mmHg 61%
    07:00 +25°C° 0 mm 4 mps 677 mmHg 60%
    08:00 +26°C° 0 mm 5 mps 677 mmHg 60%
    09:00 +28°C° 0 mm 4 mps 677 mmHg 52%
    10:00 +32°C° 0 mm 4 mps 677 mmHg 45%
    11:00 +34°C° 0 mm 4 mps 678 mmHg 38%
    12:00 +35°C° 0 mm 3 mps 677 mmHg 33%
    13:00 +37°C° 0 mm 3 mps 677 mmHg 28%
    14:00 +38°C° 0 mm 2 mps 676 mmHg 23%
    15:00 +37°C° 0 mm 2 mps 675 mmHg 24%
    16:00 +37°C° 0 mm 2 mps 675 mmHg 24%
    17:00 +35°C° 0 mm 1 mps 674 mmHg 24%
    18:00 +34°C° 0 mm 1 mps 674 mmHg 27%
    19:00 +32°C° 0 mm 1 mps 674 mmHg 30%
    20:00 +30°C° 0 mm 1 mps 674 mmHg 33%
    21:00 +30°C° 0 mm 1 mps 674 mmHg 36%
    22:00 +29°C° 0 mm 1 mps 675 mmHg 38%
    23:00 +28°C° 0 mm 1 mps 675 mmHg 40%

    21 February, Friday

    Time Temperature Precipitation Wind Pressure Humidity
    00:00 +28°C° 0 mm 1 mps 675 mmHg 41%
    01:00 +27°C° 0 mm 1 mps 675 mmHg 43%
    02:00 +27°C° 0 mm 1 mps 675 mmHg 44%
    03:00 +26°C° 0 mm 1 mps 675 mmHg 46%
    04:00 +26°C° 0 mm 1 mps 675 mmHg 48%
    05:00 +26°C° 0 mm 2 mps 675 mmHg 50%
    06:00 +27°C° 0 mm 2 mps 675 mmHg 47%
    07:00 +28°C° 0 mm 2 mps 676 mmHg 45%
    08:00 +29°C° 0 mm 2 mps 676 mmHg 42%
    15:00 +39°C° 0 mm 2 mps 675 mmHg 20%
    16:00 +37°C° 0 mm 1 mps 675 mmHg 20%
    17:00 +37°C° 0 mm 1 mps 674 mmHg 20%
    18:00 +35°C° 0 mm 1 mps 674 mmHg 23%
    19:00 +34°C° 0 mm 1 mps 674 mmHg 25%
    20:00 +32°C° 0 mm 1 mps 674 mmHg 28%
    21:00 +31°C° 0 mm 1 mps 675 mmHg 30%
    22:00 +31°C° 0 mm 1 mps 675 mmHg 32%
    23:00 +30°C° 0 mm 2 mps 676 mmHg 34%

    22 February, Saturday

    Time Temperature Precipitation Wind Pressure Humidity
    00:00 +30°C° 0 mm 2 mps 675 mmHg 37%
    01:00 +29°C° 0 mm 3 mps 675 mmHg 41%
    02:00 +29°C° 0 mm 4 mps 675 mmHg 45%
    03:00 +28°C° 0 mm 4 mps 675 mmHg 53%
    04:00 +27°C° 0 mm 4 mps 675 mmHg 60%
    05:00 +26°C° 0 mm 5 mps 675 mmHg 67%
    06:00 +26°C° 0.2 mm 5 mps 676 mmHg 69%
    07:00 +26°C° 0.2 mm 5 mps 676 mmHg 71%
    08:00 +26°C° 0.2 mm 5 mps 676 mmHg 73%
    09:00 +29°C° 0.1 mm 5 mps 676 mmHg 64%
    10:00 +32°C° 0.1 mm 5 mps 677 mmHg 54%
    11:00 +34°C° 0.1 mm 5 mps 677 mmHg 45%
    12:00 +35°C° 0.1 mm 4 mps 676 mmHg 41%
    13:00 +36°C° 0.1 mm 3 mps 675 mmHg 36%
    14:00 +36°C° 0.1 mm 2 mps 675 mmHg 32%
    15:00 +35°C° 0.3 mm 2 mps 674 mmHg 37%
    16:00 +34°C° 0.3 mm 3 mps 674 mmHg 41%
    17:00 +31°C° 0.3 mm 3 mps 673 mmHg 45%
    18:00 +29°C° 1.5 mm 3 mps 674 mmHg 58%
    19:00 +26°C° 1.5 mm 3 mps 674 mmHg 70%
    20:00 +24°C° 1.5 mm 3 mps 674 mmHg 83%
    21:00 +24°C° 0.4 mm 3 mps 675 mmHg 83%
    22:00 +22°C° 0.4 mm 3 mps 675 mmHg 84%
    23:00 +22°C° 0.4 mm 3 mps 675 mmHg 84%
    Show more